Regional Weather Roundup
Issued by NWS

Home | Current Version | Previous Version | Graphics & Text | Print | Product List | Glossary On
Versions: 1 2 3 4 5 6 7 8 9 10 11 12 13 14 15 16 17 18 19 20 21 22 23 24 25 26 27 28 29 30 31 32 33 34 35 36 37 38 39 40 41 42 43 44 45 46 47 48 49 50
000
ASUS43 KFSD 281710
RWRSD

WEATHER ROUNDUP FOR SOUTH DAKOTA
NATIONAL WEATHER SERVICE SIOUX FALLS SD
1200 PM CDT SAT MAR 28 2015

NOTE: "FAIR" INDICATES FEW OR NO CLOUDS BELOW 12,000 FEET WITH NO
SIGNIFICANT WEATHER AND/OR OBSTRUCTIONS TO VISIBILITY.


SDZ001>005-009-010-012>017-281800-
NORTHWEST AND NORTH CENTRAL SOUTH DAKOTA

CITY           SKY/WX    TMP DP  RH WIND       PRES   REMARKS
BUFFALO          N/A     63  36  36 S20       29.71F
FAITH            N/A     56  33  42 S24G32    29.82F
MOBRIDGE       SUNNY     48  33  56 S22       29.88F
$$

SDZ012>016-024>037-041>051-057-063-072>074-281800-
SOUTHWEST AND SOUTH CENTRAL SOUTH DAKOTA

CITY           SKY/WX    TMP DP  RH WIND       PRES   REMARKS
RAPID CTY ARPT SUNNY     67  36  31 S13       29.84F
PIERRE         SUNNY     48  33  56 SE16      29.93F
CUSTER         SUNNY     63  29  27 SW10      29.93F
ELLSWORTH AFB  SUNNY     66  37  33 S14       29.82F
PHILIP         SUNNY     64  36  35 SE12      29.86F
PINE RIDGE     SUNNY     69  32  25 S17       29.89F
SPEARFISH      FAIR      70  32  24 NW9       29.84F
WINNER         FAIR      57  32  38 S18       29.96F
$$

SDZ004>011-016>023-039-040-281800-
NORTHEAST SOUTH DAKOTA

CITY           SKY/WX    TMP DP  RH WIND       PRES   REMARKS
ABERDEEN       SUNNY     44  29  55 S20       30.01F
WATERTOWN      SUNNY     39  27  62 S18       30.04F
SISSETON         N/A     37  32  82 S18       30.06F
$$

SDZ017-020-022-023-036>040-048>070-281800-
SOUTHEAST SOUTH DAKOTA

CITY           SKY/WX    TMP DP  RH WIND       PRES   REMARKS
SIOUX FALLS    MOSUNNY   43  26  51 S17G23    30.11F
HURON          SUNNY     43  28  55 S17G26    30.03F
CHAMBERLAIN    SUNNY     47  32  56 SE14G20   29.98F
MITCHELL       SUNNY     44  28  53 SE20      30.06F
YANKTON        SUNNY     43  27  52 SE18      30.10F
$$

ABBREVIATIONS USED IN REMARKS
   TC - TEMPERATURE IN CELSIUS
  WCI - WIND CHILL INDEX
   HX - HEAT INDEX
  VSB - VISIBILITY



USA.gov is the U.S. government's official web portal to all federal, state and local government web resources and services.